Location: Overspoor
(51.4747°N, 5.6641°E)
Time: 01:17:50
(UTC+02:00)

DUCHIFAT 1 - Pass Details

Date: 10 July 2022
Orbit: 580 x 596 km, 98.0° (Epoch: 09 August)

Event Time Altitude Azimuth Distance (km) Brightness Sun altitude
Rises 03:55:14 0° 19° (NNE) 2,852 ? -10.8°
Reaches altitude 10° 03:57:30 10° 25° (NNE) 1,946 ? -10.6°
Maximum altitude 04:01:33 45° 99° (E) 823 ? -10.2°
Drops below altitude 10° 04:05:35 10° 173° (S) 1,932 ? -9.9°
Enters shadow 04:06:12 - 175° (S) 2,175 ? -9.8°
